• MPC Preparation (Info)

  • MPEC 2020-M115 : 2016 NV38

    The following Minor Planet Electronic Circular may be linked-to from your own Web pages, but must not otherwise be redistributed electronically.

    A form allowing access to any MPEC is at the bottom of this page.


    Read MPEC 2020-M114 Read MPEC 2020-M116


    M.P.E.C. 2020-M115                                Issued 2020 June 27, 04:46 UT
    
         The Minor Planet Electronic Circulars contain information on unusual
             minor planets and routine data on comets.  They are published
        on behalf of Division F of the International Astronomical Union by the
              Minor Planet Center, Smithsonian Astrophysical Observatory,
                              Cambridge, MA 02138, U.S.A.
    
                 Prepared using the Tamkin Foundation Computer Network
    
                                  MPC@CFA.HARVARD.EDU
                URL https://www.minorplanetcenter.net/    ISSN 1523-6714
    
                                    2016 NV38                                
    
    
                               Revision to MPEC 2016-N136                           
    
    Additional Observations:
         K16N38V  C2020 06 14.38445 21 31 58.25 +21 08 55.8          22.0 GVEM115G96
         K16N38V  C2020 06 14.38960 21 31 58.68 +21 09 01.7          22.0 GVEM115G96
         K16N38V  C2020 06 14.39475 21 31 59.13 +21 09 07.3          21.3 GVEM115G96
         K16N38V  C2020 06 14.39988 21 31 59.56 +21 09 13.1          20.4 GVEM115G96
         K16N38V  C2020 06 19.48671821 39 23.371+22 41 36.96         20.61GVEM115F52
         K16N38V  C2020 06 24.47731421 46 42.906+24 12 14.45         21.08wUEM115F52
         K16N38V  C2020 06 24.50235321 46 45.041+24 12 42.01         20.84wUEM115F52
         K16N38V  C2020 06 24.51490321 46 46.109+24 12 55.71         21.12wUEM115F52
         K16N38V KC2020 06 25.30026421 47 55.90 +24 27 04.2          20.9 VuEM115H21
         K16N38V KC2020 06 25.30317021 47 56.13 +24 27 07.6          20.4 VuEM115H21
         K16N38V KC2020 06 25.30607721 47 56.40 +24 27 11.0          20.6 VuEM115H21
         K16N38V KC2020 06 25.99007321 48 57.35 +24 39 32.5          20.8 GVEM115104
         K16N38V KC2020 06 25.99716021 48 57.96 +24 39 40.1          20.9 GVEM115104
         K16N38V KC2020 06 26.00424721 48 58.59 +24 39 47.7                VEM115104
         K16N38V KC2020 06 26.28582621 49 23.72 +24 44 54.0          20.6 VuEM115H21
         K16N38V KC2020 06 26.29164121 49 24.22 +24 45 00.6          20.7 VuEM115H21
         K16N38V KC2020 06 26.30181821 49 25.10 +24 45 11.6          20.7 VuEM115H21
         K16N38V 1C2020 06 26.33582 21 49 28.21 +24 45 46.0                LEM115658
         K16N38V 1C2020 06 26.33778 21 49 28.37 +24 45 48.0                LEM115658
         K16N38V 1C2020 06 26.33970 21 49 28.55 +24 45 50.1                LEM115658
         K16N38V 1C2020 06 26.34166 21 49 28.72 +24 45 52.2                LEM115658
         K16N38V 1C2020 06 26.34360 21 49 28.88 +24 45 54.2                LEM115658
         K16N38V !C2020 06 26.45874 21 49 38.87 +24 48 02.4          20.8 RtEM115673
         K16N38V !C2020 06 26.47668 21 49 40.45 +24 48 22.1                tEM115673
         K16N38V pC2020 06 26.96631221 50 24.59 +24 57 08.7          21.1 GVEM115L01
         K16N38V pC2020 06 26.96748821 50 24.66 +24 57 09.9          21.1 GVEM115L01
         K16N38V pC2020 06 26.97023221 50 24.88 +24 57 13.3          20.9 GVEM115L01
         K16N38V pC2020 06 26.97259221 50 25.10 +24 57 16.4          20.9 GVEM115L01
    
    Observer details:
    104 San Marcello Pistoiese.  Observers P. Bacci, M. Maestripieri.  Measurers
        P. Bacci, L. Tesi, G. Fagioli.  0.60-m reflector + CCD.
    658 National Research Council of Canada.  Observer D. D. Balam.  1.82-m
        reflector + CCD.
    673 Table Mountain Observatory, Wrightwood.  Observer J. Pittichova.  1.0-m
        f/15 reflector + CCD.
    F52 Pan-STARRS 2, Haleakala.  Observers J. Bulger, K. Chambers, T. Dukes, T.
        Lowe, A. Schultz, M. Willman.  Measurers S. Chastel, M. Huber, Y.
        Ramanjooloo, R. Wainscoat, R. Weryk, K. Chambers, T. de Boer, L. Denneau,
        J. Fairlamb, H. Flewelling, C.-C. Lin, E. Magnier.  1.8-m Ritchey-Chretien
        + CCD.
    G96 Mt. Lemmon Survey.  Observer H. Groeller.  Measurers E. J. Christensen, G.
        A. Farneth, D. C. Fuls, A. R. Gibbs, A. D. Grauer, H. Groeller, R. A.
        Kowalski, S. M. Larson, G. J. Leonard, T. A. Pruyne, D. Rankin, R. L.
        Seaman, F. C. Shelly, K. W. Wierzchos.  1.5-m reflector + 10K CCD.
    H21 Astronomical Research Observatory, Westfield.  Observer R. Holmes.
        Measurers S. Foglia, L. Buzzi, T. Linder, R. Holmes.  0.76-m f/3.0
        astrograph + CCD.
    L01 Visnjan Observatory, Tican.  Observer K. Korlevic.  1.0-m f/2.9 reflector
        + CCD.
    
    First and last observations above in comparison with prediction:
    Residuals in seconds of arc (or zero decimals in degrees), reference and Delta-T
    200614 G96  158-   11-    200626 L01  155-   16-    MPO384685    -335 days
    
    Orbital elements:
    2016 NV38                                                Earth MOID = 0.1340 AU
    Epoch 2020 May 31.0 TT = JDT 2459000.5                  Veres
    M 328.88373              (2000.0)            P               Q
    n   0.24021767     Peri.  205.21891     +0.91964750     -0.39240577
    a   2.5629064      Node   177.69101     +0.39233367     +0.91979205
    e   0.5686416      Incl.   23.88866     -0.01796587     -0.00053417
    P   4.10           H   18.6           G   0.15           U   3
    Residuals in seconds of arc
    160711 G96  0.3+  0.0     160715 G96  0.0   0.1+    200626 104  0.1+  0.2-
    160711 G96  0.2-  0.3+    160715 G96  0.1-  0.1-    200626 H21  0.2+  0.3+
    160711 G96  0.1+  0.0     200614 G96  0.1-  0.0     200626 H21  0.2+  0.6+
    160711 G96  0.2+  0.2-    200614 G96  0.2-  0.2+    200626 H21  0.1+  0.4+
    160711 G96  0.5+  0.1-    200614 G96  0.0   0.2+    200626 658  0.1-  0.0
    160711 G96  0.1+  0.5-    200614 G96  0.0   0.4+    200626 658  0.2-  0.1-
    160711 G96  0.2+  0.0     200619 F52  0.4-  0.0     200626 658  0.1-  0.1-
    160711 G96  0.5+  0.2-    200624 F52  0.2+  0.2+    200626 658  0.1-  0.2-
    160713 691  0.4-  0.3-    200624 F52  0.1+  0.3+    200626 658  0.2-  0.3-
    160713 691  1.8-  1.3-    200624 F52  0.1+  0.2+    200626 673  0.1-  0.1+
    160713 691  1.7-  0.5-    200625 H21  0.4+  1.1-    200626 673  0.5+  0.3+
    160715 J95  0.7+  0.2-    200625 H21  0.2+  0.9-    200626 L01  0.2+  0.2-
    160715 J95  0.3-  0.7+    200625 H21  0.4+  0.7-    200626 L01  0.3-  0.3-
    160715 G96  0.1+  0.2-    200625 104  0.0   0.2+    200626 L01  0.6-  0.1+
    160715 G96  0.2-  0.2+    200625 104  0.1-  0.0     200626 L01  0.4-  0.6+
    
    Ephemeris:
    2016 NV38                a,e,i = 2.56, 0.57, 24                  q = 1.1055
    Date    TT    R. A. (2000) Decl.     Delta      r    Elong.  Phase     V
    2020 05 28    21 06 49.2 +16 00 41   1.3590  1.8359   100.4    32.9    22.0
    ...
    2020 06 12    21 28 30.8 +20 25 49   1.1453  1.7246   105.8    34.5    21.5
    ...
    2020 06 20    21 40 07.9 +22 50 56   1.0374  1.6653   108.4    35.4    21.2
    ...
    2020 06 26    21 48 57.8 +24 39 46   0.9593  1.6209   110.2    36.1    21.0
    2020 06 27    21 50 27.1 +24 57 49   0.9466  1.6135   110.5    36.2    21.0
    2020 06 28    21 51 56.9 +25 15 49   0.9339  1.6062   110.8    36.3    21.0
    ...
    2020 07 04    22 01 05.3 +27 02 38   0.8591  1.5622   112.5    37.0    20.7
    ...
    2020 07 12    22 13 55.4 +29 20 04   0.7631  1.5044   114.7    37.9    20.4
    ...
    2020 07 27    22 41 38.6 +33 05 16   0.5942  1.3999   118.5    39.6    19.8
    
    A. U. Tomatic                (C) Copyright 2020 MPC           M.P.E.C. 2020-M115
    


    Read MPEC 2020-M114 Read MPEC 2020-M116


    MPEC number:

    Enter an MPEC number in one of the following forms:

    • 1997-B01 (the full form)
    • J97B01 (the packed version of the full form)
    • B01 (the abbreviated form)